Regional Weather Roundup
Issued by NWS Newport/Morehead, NC

Current Version | Previous Version | Text Only | Print | Product List | Glossary On
Versions: 1 2 3 4 5 6 7 8 9 10 11 12 13 14 15 16 17 18 19 20 21 22 23 24 25 26 27 28 29 30 31 32 33 34 35 36 37 38 39 40 41 42 43 44 45 46 47 48 49 50
000
ASUS42 KMHX 270913
RWRMHX
WEATHER ROUNDUP FOR EASTERN NORTH CAROLINA
NATIONAL WEATHER SERVICE NEWPORT/MOREHEAD CITY NC
400 AM EST MON FEB 27 2017

NOTE: "FAIR" INDICATES FEW OR NO CLOUDS BELOW 12,000 FEET
WITH NO SIGNIFICANT WEATHER AND/OR OBSTRUCTIONS TO VISIBILITY

NCZ015>017-031-032-045>047-102-103-271000-
NORTH COAST

CITY           SKY/WX    TMP DP  RH WIND       PRES   REMARKS
EDENTON        CLEAR     38  36  91 CALM      30.38S
ELIZABETH CITY CLEAR     40  38  93 SE3       30.38R
KITTY HAWK     NOT AVBL
MANTEO         CLEAR     37  36  99 CALM      30.39S

$$

NCZ045>047-081-094-103-104-271000-
CENTRAL COAST

CITY           SKY/WX    TMP DP  RH WIND       PRES   REMARKS
FRISCO         CLEAR     36  31  82 E5        30.38R

$$

NCZ095-097-098-100-101-271000-
SOUTHERN COAST

CITY           SKY/WX    TMP DP  RH WIND       PRES   REMARKS
BEAUFORT       CLEAR     43  37  79 NE5       30.37R
CEDAR ISLAND   NOT AVBL
JACKSONVILLE   CLEAR     35  35 100 CALM      30.35R
PINEY ISLAND   SUNNY    N/A N/A N/A E5        30.37R
WILMINGTON     CLEAR     35  33  92 CALM      30.35R


$$

NCZ011>013-027>030-043-044-078>080-089-090>093-098-271000-
COASTAL PLAIN

CITY           SKY/WX    TMP DP  RH WIND       PRES   REMARKS
AHOSKIE          N/A     29  27  90 CALM      30.37S
CLINTON        PTCLDY    35  32  90 CALM      30.36R
ELIZABETHTOWN  PTCLDY    35  32  89 CALM      30.35R
GOLDSBORO      PTCLDY    33  29  85 CALM      30.34R
GREENVILLE     CLEAR     32  30  93 CALM      30.36S
HAVELOCK       NOT AVBL
KENANSVILLE    CLEAR     28  27  93 CALM      30.36R
KINSTON        CLEAR     31  28  90 CALM      30.36R
NEW BERN       PTCLDY    34  32  92 S3        30.37S
RICHLANDS      PTCLDY    29  27  92 CALM      30.36R
ROCKY MOUNT    CLEAR     30  28  92 CALM      30.35S
WASHINGTON     CLEAR     33  29  86 CALM      30.36F
WHITEVILLE     CLEAR     37  33  87 CALM      30.34R

$$

AMZ130-135-150-152-154-156-158-170-250-252-270-ANZ085-086-088-633-658-670-271000-
MARINE OBSERVATIONS

STATION/POSITION TIME  TEMP    WIND        PRES    WAVE   SWELL
                       AIR SEA DIR/SP/G            HT/PER HT/PER
                 (UTC) (F)     (DEG/KT/KT) (MB)    (FT/S) (FT/S)
CHESAPEAKE LIGHT NOT AVBL
64 E VA BEACH    0850   47 49   70/  4/  6 1028.8    3/ 8   2/ 8
DUCK             0848   47 49  150/  6/  6 1028.3
2 E DUCK         0900      49                N/A     2/ 9
OREGON INLET     0842   47 56   40/  3/  3 1028.7
13E OREGON INLT  NOT AVBL
HATTERAS CG      0848   52 61   30/  4/  5 1028.1
DIAMOND BUOY     0850   56 71  330/  2/  6 1028.6    3/ 9   3/ 9
CAPE LOOKOUT     0900   56      60/  6/  7 1027.8
BEAUFORT LAB     0848   47 60   60/  3/  4 1027.1
30 SE NEW RVR IN 0808   57      60/  6/  8 1027.8
30 SE NEW RVR IN 0843      65                N/A     3/ 8
27 SE WRIGHTSVLE 0808   57 61   70/  6/ 10 1026.5
5 SE WRIGHTSVLE  0808   54 58   20/  4/  6 1027.0
225 S CAPE HAT   0850   64 71   50/  8/ 12 1026.7    5/ 9   5/ 9
41 SE CHARLESTON 0850   61 69   80/ 12/ 14 1026.0    2/ 9   2/ 9

$$




USA.gov is the U.S. government's official web portal to all federal, state and local government web resources and services.